KD0ISH Weather Reports


time (UTC)temp
F
wind
direction
speed
knots
gust
knots
rain 1hr
in
rain 24hr
in
rain mn
in
humidity
%
barometer
mb
20260505071450 68 200 2.6 4.3 0.00 0.00 0.00 74 1005.3
20260505070948 68 217 2.6 4.3 0.00 0.00 0.00 74 1005.5
20260505070445 67 212 1.7 1.7 0.00 0.00 0.00 74 1005.3
20260505065940 67 224 3.5 4.3 0.00 0.00 0.00 74 1005.5
20260505065437 67 221 1.7 1.7 0.00 0.00 0.00 74 1005.9
20260505064934 68 230 3.5 5.2 0.00 0.00 0.00 74 1005.9
20260505064431 67 219 2.6 2.6 0.00 0.00 0.00 74 1005.9
20260505063929 67 214 1.7 2.6 0.00 0.00 0.00 74 1005.8
20260505063425 67 218 1.7 1.7 0.00 0.00 0.00 74 1005.7
20260505062922 67 206 4.3 7.0 0.00 0.00 0.00 74 1005.9
20260505062419 67 212 2.6 4.3 0.00 0.00 0.00 75 1005.8
20260505061916 67 232 2.6 2.6 0.00 0.00 0.00 74 1005.9
20260505061414 67 211 2.6 2.6 0.00 0.00 0.00 74 1005.4
20260505060911 67 221 1.7 1.7 0.00 0.00 0.00 74 1005.9
20260505060408 68 213 2.6 2.6 0.00 0.00 0.00 74 1005.7
20260505055904 68 207 2.6 2.6 0.00 0.00 0.00 73 1005.6
20260505055400 68 215 0.9 1.7 0.00 0.00 0.00 73 1006.0
20260505054857 68 214 1.7 2.6 0.00 0.00 0.00 73 1006.0
20260505054355 68 232 2.6 2.6 0.00 0.00 0.00 72 1005.8
20260505053853 68 206 2.6 2.6 0.00 0.00 0.00 72 1005.9
20260505053350 68 212 2.6 2.6 0.00 0.00 0.00 71 1006.0
20260505052846 69 221 2.6 2.6 0.00 0.00 0.00 71 1006.1
20260505052343 69 213 1.7 2.6 0.00 0.00 0.00 71 1006.0
20260505051840 69 223 2.6 2.6 0.00 0.00 0.00 70 1006.4
20260505051337 69 220 5.2 6.1 0.00 0.00 0.00 70 1006.0
20260505050836 69 213 1.7 1.7 0.00 0.00 0.00 70 1006.3
20260505050334 69 206 1.7 2.6 0.00 0.00 0.00 70 1006.1
20260505041301 70 235 3.5 4.3 0.00 0.00 0.00 68 1006.3
20260505040758 70 211 3.5 4.3 0.00 0.00 0.00 67 1006.3
20260505040256 70 211 4.3 7.0 0.00 0.00 0.00 68 1006.3
20260505035752 70 221 1.7 1.7 0.00 0.00 0.00 68 1006.3
20260505035248 70 217 2.6 4.3 0.00 0.00 0.00 68 1006.2
20260505034746 70 202 2.6 4.3 0.00 0.00 0.00 68 1006.1
20260505034242 70 202 2.6 2.6 0.00 0.00 0.00 68 1006.3
20260505033739 70 200 2.6 4.3 0.00 0.00 0.00 68 1006.4
20260505033236 70 228 1.7 1.7 0.00 0.00 0.00 69 1006.4
20260505032734 70 210 2.6 4.3 0.00 0.00 0.00 69 1006.5
20260505032230 70 206 1.7 1.7 0.00 0.00 0.00 68 1006.3
20260505031728 70 210 2.6 2.6 0.00 0.00 0.00 68 1006.5
20260505031224 70 211 3.5 4.3 0.00 0.00 0.00 68 1006.5
20260505030721 71 213 1.7 1.7 0.00 0.00 0.00 67 1006.4
20260505030217 71 221 2.6 2.6 0.00 0.00 0.00 67 1006.2
20260505025713 71 216 1.7 1.7 0.00 0.00 0.00 66 1006.2
20260505025211 71 206 4.3 6.1 0.00 0.00 0.00 66 1006.4
20260505024709 71 212 2.6 4.3 0.00 0.00 0.00 66 1006.3
20260505024206 72 202 2.6 2.6 0.00 0.00 0.00 66 1006.1
20260505023703 72 218 2.6 4.3 0.00 0.00 0.00 65 1006.2
20260505023200 72 223 5.2 6.1 0.00 0.00 0.00 64 1005.9
20260505022658 72 209 4.3 5.2 0.00 0.00 0.00 64 1005.9
20260505022155 73 195 4.3 5.2 0.00 0.00 0.00 63 1005.6
20260505021651 73 206 4.3 6.1 0.00 0.00 0.00 63 1005.6
20260505021148 73 186 6.1 12.2 0.00 0.00 0.00 63 1005.9
20260505020644 73 206 5.2 7.0 0.00 0.00 0.00 63 1005.8
20260505020140 73 202 5.2 6.1 0.00 0.00 0.00 65 1005.6
20260505015637 73 216 2.6 2.6 0.00 0.00 0.00 65 1005.5
20260505015134 73 208 6.1 7.8 0.00 0.00 0.00 65 1005.8
20260505014631 73 223 4.3 6.1 0.00 0.00 0.00 65 1005.5
20260505014128 73 201 4.3 4.3 0.00 0.00 0.00 64 1005.5
20260505013625 73 209 2.6 5.2 0.00 0.00 0.00 64 1005.5
20260505013122 73 234 4.3 4.3 0.00 0.00 0.00 64 1005.5
20260505012621 73 216 1.7 1.7 0.00 0.00 0.00 64 1005.4
20260505012117 74 199 3.5 5.2 0.00 0.00 0.00 62 1005.2
20260505011612 74 226 3.5 6.1 0.00 0.00 0.00 62 1005.1
20260505011110 74 213 3.5 4.3 0.00 0.00 0.00 62 1005.3
20260505010605 74 209 5.2 7.0 0.00 0.00 0.00 61 1005.2
20260505005558 75 206 2.6 2.6 0.00 0.00 0.00 61 1005.2
20260505005055 75 205 4.3 7.8 0.00 0.00 0.00 60 1005.1
20260505004552 75 202 2.6 2.6 0.00 0.00 0.00 60 1005.1
20260505004049 75 225 3.5 4.3 0.00 0.00 0.00 59 1005.1
20260505003546 75 217 6.1 7.0 0.00 0.00 0.00 59 1005.0
20260505003043 75 217 4.3 5.2 0.00 0.00 0.00 59 1004.9
20260505002538 76 221 2.6 2.6 0.00 0.00 0.00 60 1004.9
20260505002038 76 213 2.6 2.6 0.00 0.00 0.00 60 1004.8
20260505001534 76 217 2.6 2.6 0.00 0.00 0.00 59 1004.7
20260505001031 76 223 2.6 2.6 0.00 0.00 0.00 58 1004.5
20260505000529 76 221 4.3 6.1 0.00 0.00 0.00 58 1004.7
20260505000026 77 198 4.3 5.2 0.00 0.00 0.00 58 1004.5
20260504235523 77 214 2.6 2.6 0.00 0.00 0.00 58 1004.9
20260504235019 77 209 2.6 2.6 0.00 0.00 0.00 57 1004.9
20260504234517 78 223 6.1 8.7 0.00 0.00 0.00 56 1004.9
20260504234014 78 214 5.2 7.0 0.00 0.00 0.00 55 1004.7
20260504233509 79 231 4.3 7.8 0.00 0.00 0.00 55 1004.8
20260504233006 79 248 4.3 5.2 0.00 0.00 0.00 55 1005.0
20260504232503 79 233 4.3 6.1 0.00 0.00 0.00 54 1004.8
20260504232001 80 234 4.3 5.2 0.00 0.00 0.00 54 1004.8
20260504231456 80 216 5.2 6.1 0.00 0.00 0.00 54 1004.8
20260504230953 80 202 6.1 8.7 0.00 0.00 0.00 53 1004.8
20260504230450 80 213 7.0 9.6 0.00 0.00 0.00 53 1004.9
20260504225949 80 233 4.3 6.1 0.00 0.00 0.00 53 1004.7
20260504225445 80 212 2.6 5.2 0.00 0.00 0.00 54 1004.5
20260504224942 80 209 2.6 4.3 0.00 0.00 0.00 54 1004.7
20260504224439 80 224 3.5 4.3 0.00 0.00 0.00 55 1004.9
20260504223936 80 191 5.2 6.1 0.00 0.00 0.00 53 1004.7
20260504223432 80 232 4.3 5.2 0.00 0.00 0.00 53 1004.9
20260504222927 80 224 3.5 5.2 0.00 0.00 0.00 55 1004.9
20260504222425 80 196 3.5 4.3 0.00 0.00 0.00 56 1004.9
20260504221923 80 218 3.5 5.2 0.00 0.00 0.00 54 1004.8
20260504221419 81 218 3.5 5.2 0.00 0.00 0.00 54 1005.1
20260504220917 81 232 8.7 12.2 0.00 0.00 0.00 52 1004.9
20260504220413 81 201 4.3 5.2 0.00 0.00 0.00 53 1005.0
20260504215910 81 228 4.3 5.2 0.00 0.00 0.00 53 1004.8
20260504215407 82 289 5.2 7.0 0.00 0.00 0.00 53 1005.0
20260504214903 82 208 2.6 2.6 0.00 0.00 0.00 52 1004.8
20260504214400 82 216 3.5 4.3 0.00 0.00 0.00 53 1004.8
20260504213857 81 163 4.3 7.8 0.00 0.00 0.00 51 1005.1
20260504213352 81 192 6.1 7.8 0.00 0.00 0.00 52 1005.0
20260504212850 80 209 5.2 7.0 0.00 0.00 0.00 54 1005.2
20260504212346 80 232 3.5 5.2 0.00 0.00 0.00 54 1005.2
20260504211844 79 226 7.8 11.3 0.00 0.00 0.00 54 1005.3
20260504211340 80 218 5.2 6.1 0.00 0.00 0.00 54 1005.4
20260504210838 80 214 4.3 5.2 0.00 0.00 0.00 53 1005.4
20260504210334 80 214 9.6 13.9 0.00 0.00 0.00 52 1005.3
20260504205831 80 230 5.2 8.7 0.00 0.00 0.00 53 1005.5
20260504205329 80 270 5.2 6.1 0.00 0.00 0.00 53 1005.4
20260504204827 81 231 4.3 6.1 0.00 0.00 0.00 52 1005.4
20260504204326 81 212 3.5 4.3 0.00 0.00 0.00 53 1005.4
20260504203824 80 222 6.1 7.8 0.00 0.00 0.00 52 1005.7
20260504203321 81 216 6.1 7.0 0.00 0.00 0.00 51 1005.7
20260504202816 81 226 3.5 5.2 0.00 0.00 0.00 51 1005.7
20260504202314 81 205 8.7 12.2 0.00 0.00 0.00 51 1005.7
20260504201811 81 202 5.2 6.1 0.00 0.00 0.00 51 1005.8
20260504201308 80 220 4.3 5.2 0.00 0.00 0.00 51 1005.8
20260504200805 80 203 5.2 8.7 0.00 0.00 0.00 52 1005.9
20260504200302 81 209 4.3 5.2 0.00 0.00 0.00 53 1005.7
20260504195758 80 210 3.5 6.1 0.00 0.00 0.00 51 1006.1
20260504195254 80 202 5.2 7.0 0.00 0.00 0.00 51 1006.0
20260504194751 80 218 6.1 7.8 0.00 0.00 0.00 51 1006.0
20260504194247 80 205 7.0 8.7 0.00 0.00 0.00 52 1006.1
20260504193743 80 215 4.3 5.2 0.00 0.00 0.00 52 1006.2
20260504193241 80 216 6.1 7.8 0.00 0.00 0.00 52 1006.2
20260504192739 80 217 8.7 12.2 0.00 0.00 0.00 52 1006.4
20260504192237 81 242 5.2 7.0 0.00 0.00 0.00 53 1006.3
20260504191736 81 224 4.3 6.1 0.00 0.00 0.00 53 1006.4
20260504191232 80 214 3.5 6.1 0.00 0.00 0.00 51 1006.2
20260504190727 80 216 5.2 7.0 0.00 0.00 0.00 53 1006.5
20260504190224 80 246 6.1 8.7 0.00 0.00 0.00 52 1006.3
20260504185721 80 237 5.2 7.8 0.00 0.00 0.00 52 1006.4
20260504185218 79 243 7.0 11.3 0.00 0.00 0.00 52 1006.3
20260504184714 78 211 6.1 9.6 0.00 0.00 0.00 53 1006.3
20260504184209 79 197 5.2 6.1 0.00 0.00 0.00 53 1006.3
20260504183706 80 210 4.3 6.1 0.00 0.00 0.00 53 1006.6
20260504183203 79 230 4.3 7.0 0.00 0.00 0.00 53 1006.4
20260504182701 79 263 7.8 14.8 0.00 0.00 0.00 52 1006.5
20260504182158 78 220 6.1 8.7 0.00 0.00 0.00 53 1006.7
20260504181655 79 208 9.6 14.8 0.00 0.00 0.00 52 1006.6
20260504181153 78 255 5.2 7.8 0.00 0.00 0.00 53 1006.6
20260504180652 78 206 5.2 6.1 0.00 0.00 0.00 54 1006.9
20260504180150 79 194 6.1 7.0 0.00 0.00 0.00 53 1006.7
20260504175647 79 215 2.6 4.3 0.00 0.00 0.00 54 1006.9
20260504175143 79 248 5.2 6.1 0.00 0.00 0.00 53 1006.9
20260504174642 78 214 6.1 7.8 0.00 0.00 0.00 53 1007.2
20260504174138 78 205 6.1 7.0 0.00 0.00 0.00 52 1007.1
20260504173635 78 221 2.6 2.6 0.00 0.00 0.00 55 1007.2
20260504173132 78 207 6.1 9.6 0.00 0.00 0.00 54 1007.0
20260504172629 77 207 3.5 4.3 0.00 0.00 0.00 56 1007.2
20260504172125 77 200 7.0 7.8 0.00 0.00 0.00 54 1007.0
20260504171622 78 211 7.0 9.6 0.00 0.00 0.00 55 1007.3
20260504171119 77 279 7.0 8.7 0.00 0.00 0.00 55 1007.1
20260504170615 77 231 7.8 9.6 0.00 0.00 0.00 53 1007.1
20260504170113 77 240 6.1 9.6 0.00 0.00 0.00 55 1007.0
20260504150958 71 243 9.6 13.0 0.00 0.00 0.00 57 1007.3
20260504150455 71 198 9.6 13.0 0.00 0.00 0.00 57 1007.3
20260504140922 69 230 5.2 7.0 0.00 0.00 0.00 59 1007.7
20260504140418 68 247 6.1 8.7 0.00 0.00 0.00 59 1007.6
20260504130343 65 205 6.1 8.7 0.00 0.00 0.00 63 1008.2
20260504120306 63 207 6.1 8.7 0.00 0.00 0.00 65 1008.6
20260504110230 63 189 4.3 5.2 0.00 0.00 0.00 62 1008.5
20260504100154 64 228 4.3 5.2 0.00 0.00 0.00 62 1009.0
20260504090116 65 220 4.3 7.0 0.00 0.00 0.00 61 1009.1
20260504081547 65 233 4.3 5.2 0.00 0.00 0.00 61 1009.2
20260504081042 65 240 3.5 5.2 0.00 0.00 0.00 62 1009.2
20260504080540 65 260 3.5 5.2 0.00 0.00 0.00 62 1009.5